Change the Weather History Date:

Friday, December 14, 2012

  Actual Average Record
Temperature  
Mean Temperature 41 °F -  
Max Temperature 50 °F 41 °F 55 °F (1998)
Min Temperature 32 °F 32 °F 21 °F (1996)
Degree Days  
Heating Degree Days 24    
Moisture  
Dew Point 39 °F    
Average Humidity 93    
Maximum Humidity 100    
Minimum Humidity 81    
Precipitation  
Precipitation 0.28 in - - ()
Sea Level Pressure  
Sea Level Pressure 29.44 in    
Wind  
Wind Speed 8 mph ()    
Max Wind Speed 18 mph    
Max Gust Speed 28 mph    
Visibility 5.4 miles    
Events Rain    
Averages and records for this station are not official NWS values.
T = Trace of Precipitation, MM = Missing Value Source: Averaged Metar Reports

Daily Weather History Graph

Daily Weather History Graph

Search for Another Location

Airport or City:

Trip Planner

Search our weather history database for the weather conditions in past years. The results will help you decide how hot, cold, wet, or windy it might be!

Date:

Astronomy

Dec. 14, 2012 Rise Set
Actual Time 8:36 AM CET 4:29 PM CET
Civil Twilight 7:56 AM CET 5:09 PM CET
Nautical Twilight 7:13 AM CET 5:52 PM CET
Astronomical Twilight 6:33 AM CET 6:33 PM CET
Moon 9:22 AM CET (12/14) 6:10 PM CET (12/14)
Length of Visible Light 9h 13m
Length of Day
7h 52m
New Moon, 2% of the Moon is Illuminated
Dec 14
New Moon
Dec 20
First Quarter
Dec 28
Full
Jan 5
Last Quarter
Jan 11
New

Hourly Weather History & Observations

Time (CET) Temp. Windchill Dew Point Humidity Pressure Visibility Wind Dir Wind Speed Gust Speed Precip Events Conditions
12:25 AM 33.8 °F 28.6 °F 33.8 °F 100% 29.68 in - ESE 5.8 mph - N/A Rain Light Rain
12:55 AM 33.8 °F 29.6 °F 33.8 °F 100% 29.68 in - SE 4.6 mph - N/A Rain Light Rain
1:00 AM 35 °F - 34 °F 93% 29.68 in 3 mi SE 4.5 mph - - Rain Heavy Rain
1:10 AM 35.6 °F 30.7 °F 33.8 °F 93% 29.65 in - ESE 5.8 mph - N/A Rain Light Rain
1:25 AM 35.6 °F 30.7 °F 33.8 °F 93% 29.65 in 3.1 mi SE 5.8 mph - N/A   Overcast
1:48 AM 35.6 °F 30.7 °F 33.8 °F 93% 29.65 in 3.1 mi SE 5.8 mph - N/A   Overcast
1:55 AM 35.6 °F 30.7 °F 33.8 °F 93% 29.65 in - SE 5.8 mph - N/A Rain Light Rain
2:15 AM 35.6 °F 30.7 °F 33.8 °F 93% 29.65 in 3.1 mi SE 5.8 mph - N/A   Overcast
2:25 AM 35.6 °F 29.9 °F 33.8 °F 93% 29.65 in 3.1 mi SE 6.9 mph - N/A   Overcast
2:55 AM 35.6 °F 30.7 °F 33.8 °F 93% 29.65 in 3.1 mi SE 5.8 mph - N/A   Overcast
3:25 AM 35.6 °F 30.7 °F 35.6 °F 100% 29.65 in 3.7 mi SE 5.8 mph - N/A   Overcast
3:55 AM 35.6 °F 29.9 °F 35.6 °F 100% 29.62 in 3.7 mi SE 6.9 mph - N/A   Overcast
4:00 AM 36 °F - 35 °F 95% 29.64 in 4 mi SE 6.7 mph - -   Mist
4:18 AM 35.6 °F 29.9 °F 35.6 °F 100% 29.62 in 3.7 mi SE 6.9 mph - N/A   Overcast
4:25 AM 35.6 °F 29.9 °F 35.6 °F 100% 29.62 in 4.3 mi SE 6.9 mph - N/A   Overcast
4:32 AM 35.6 °F 29.9 °F 35.6 °F 100% 29.62 in 4.3 mi SE 6.9 mph - N/A   Overcast
4:55 AM 35.6 °F 29.9 °F 35.6 °F 100% 29.62 in 4.3 mi SE 6.9 mph - N/A   Overcast
5:17 AM 37.4 °F 32.1 °F 35.6 °F 93% 29.62 in 5.0 mi SE 6.9 mph - N/A   Overcast
5:18 AM 37.4 °F 32.8 °F 35.6 °F 93% 29.62 in 4.3 mi SE 5.8 mph - N/A   Mostly Cloudy
5:25 AM 37.4 °F 32.8 °F 35.6 °F 93% 29.62 in 5.0 mi SE 5.8 mph - N/A   Overcast
5:36 AM 37.4 °F 31.4 °F 35.6 °F 93% 29.62 in 5.0 mi SE 8.1 mph - N/A   Overcast
5:44 AM 37.4 °F 31.4 °F 35.6 °F 93% 29.62 in 5.0 mi SE 8.1 mph - N/A   Overcast
5:55 AM 37.4 °F 31.4 °F 35.6 °F 93% 29.59 in 5.0 mi SE 8.1 mph - N/A   Overcast
6:08 AM 37.4 °F 31.4 °F 35.6 °F 93% 29.59 in 5.0 mi SE 8.1 mph - N/A   Overcast
6:25 AM 37.4 °F 30.8 °F 35.6 °F 93% 29.59 in 5.6 mi SE 9.2 mph - N/A   Overcast
6:49 AM 37.4 °F 31.4 °F 35.6 °F 93% 29.59 in 6.2 mi SE 8.1 mph - N/A   Overcast
6:55 AM 37.4 °F 31.4 °F 35.6 °F 93% 29.59 in 6.2 mi SE 8.1 mph - N/A   Overcast
7:00 AM 38 °F - 36 °F 90% 29.61 in 6 mi SE 6.7 mph - -   Partly Cloudy
7:25 AM 37.4 °F 31.4 °F 37.4 °F 100% 29.59 in 6.2 mi SE 8.1 mph - N/A   Overcast
7:55 AM 39.2 °F 33.0 °F 37.4 °F 93% 29.56 in 6.2 mi SE 9.2 mph - N/A   Overcast
8:25 AM 39.2 °F 32.5 °F 37.4 °F 93% 29.53 in 6.2 mi SE 10.4 mph - N/A   Overcast
8:55 AM 39.2 °F 33.0 °F 37.4 °F 93% 29.53 in 6.2 mi SE 9.2 mph - N/A   Overcast
9:25 AM 37.4 °F 30.3 °F 35.6 °F 93% 29.53 in 6.2 mi SE 10.4 mph - N/A   Overcast
9:55 AM 37.4 °F 30.3 °F 35.6 °F 93% 29.50 in 6.2 mi SE 10.4 mph - N/A   Overcast
10:00 AM 38 °F - 36 °F 88% 29.54 in 8 mi SE 8.9 mph - -   Overcast
10:25 AM 39.2 °F 33.0 °F 35.6 °F 87% 29.50 in 6.2 mi SE 9.2 mph - N/A   Scattered Clouds
10:55 AM 39.2 °F 33.6 °F 35.6 °F 87% 29.50 in 6.2 mi SE 8.1 mph - N/A   Mostly Cloudy
11:25 AM 39.2 °F 32.0 °F 37.4 °F 93% 29.47 in 6.2 mi ESE 11.5 mph - N/A   Overcast
11:55 AM 41.0 °F 35.2 °F 37.4 °F 87% 29.44 in 6.2 mi ESE 9.2 mph - N/A   Overcast
12:25 PM 41.0 °F 34.3 °F 37.4 °F 87% 29.44 in 6.2 mi SE 11.5 mph - N/A   Overcast
12:55 PM 41.0 °F 33.9 °F 37.4 °F 87% 29.42 in 6.2 mi ESE 12.7 mph - N/A   Overcast
1:00 PM 41 °F - 38 °F 83% 29.41 in 11 mi ESE 11.2 mph - -   Partly Cloudy
1:25 PM 41.0 °F 33.9 °F 37.4 °F 87% 29.39 in 6.2 mi ESE 12.7 mph - N/A   Mostly Cloudy
1:55 PM 42.8 °F 36.2 °F 37.4 °F 81% 29.36 in 6.2 mi SE 12.7 mph - N/A   Overcast
2:05 PM 42.8 °F 35.8 °F 37.4 °F 81% 29.33 in 6.2 mi SE 13.8 mph - N/A   Mostly Cloudy
2:25 PM 42.8 °F 35.1 °F 39.2 °F 87% 29.33 in 6.2 mi SE 16.1 mph - N/A   Mostly Cloudy
2:55 PM 42.8 °F 35.8 °F 39.2 °F 87% 29.30 in 6.2 mi SE 13.8 mph - N/A   Overcast
3:25 PM 42.8 °F 35.4 °F 39.2 °F 87% 29.27 in 6.2 mi SE 15.0 mph - N/A Rain Light Rain Showers
3:55 PM 42.8 °F 35.8 °F 41.0 °F 93% 29.24 in 4.3 mi SE 13.8 mph - N/A Rain Rain Showers
4:00 PM 42 °F - 41 °F 94% 29.26 in 3 mi SE 13.4 mph - - Rain Rain
4:25 PM 42.8 °F 35.8 °F 41.0 °F 93% 29.21 in 2.5 mi SE 13.8 mph - N/A Rain Rain
4:55 PM 42.8 °F 35.4 °F 42.8 °F 100% 29.21 in 1.9 mi SE 15.0 mph - N/A Rain Rain
5:25 PM 42.8 °F 36.2 °F 42.8 °F 100% 29.18 in 3.7 mi SSE 12.7 mph - N/A Rain Light Rain
5:55 PM 44.6 °F 38.1 °F 44.6 °F 100% 29.15 in 5.6 mi SE 13.8 mph - N/A Rain Rain Showers
6:25 PM 46.4 °F 40.4 °F 44.6 °F 93% 29.15 in 6.2 mi South 13.8 mph - N/A   Drizzle
6:55 PM 48.2 °F - 46.4 °F 93% 29.15 in 6.2 mi SSE 15.0 mph - N/A Rain Light Rain Showers
7:00 PM 48 °F - 46 °F 91% 29.16 in 9 mi SSE 17.9 mph - - Rain Light Rain
7:25 PM 48.2 °F - 46.4 °F 93% 29.15 in 6.2 mi South 16.1 mph 27.6 mph N/A Rain Light Rain
7:55 PM 48.2 °F - 46.4 °F 93% 29.12 in 4.3 mi South 18.4 mph - N/A Rain Light Rain
8:25 PM 48.2 °F - 48.2 °F 100% 29.15 in 4.3 mi South 17.3 mph - N/A Rain Light Rain Showers
8:55 PM 50.0 °F - 48.2 °F 94% 29.15 in 6.2 mi South 12.7 mph - N/A   Drizzle
9:25 PM 50.0 °F - 48.2 °F 94% 29.15 in 6.2 mi South 13.8 mph - N/A   Mostly Cloudy
9:55 PM 50.0 °F - 48.2 °F 94% 29.18 in 6.2 mi South 12.7 mph - N/A   Overcast
10:00 PM 49 °F - 47 °F 92% 29.18 in 28 mi South 13.4 mph - -   Partly Cloudy
10:01 PM 50.0 °F - 48.2 °F 94% 29.18 in 6.2 mi South 12.7 mph - N/A   Overcast
10:05 PM 50.0 °F - 48.2 °F 94% 29.18 in 6.2 mi South 12.7 mph - N/A   Mostly Cloudy
10:25 PM 48.2 °F - 46.4 °F 93% 29.18 in 6.2 mi South 11.5 mph - N/A   Partly Cloudy
10:55 PM 48.2 °F - 46.4 °F 93% 29.18 in 6.2 mi South 12.7 mph - N/A   Mostly Cloudy
11:25 PM 50.0 °F - 46.4 °F 87% 29.21 in 6.2 mi South 16.1 mph - N/A   Mostly Cloudy
11:55 PM 50.0 °F - 46.4 °F 87% 29.21 in 6.2 mi SSW 16.1 mph - N/A   Mostly Cloudy